2023/01/29 00:00:00,65.6,-4.6
2023/01/29 00:10:00,65.4,-4.8
2023/01/29 00:20:00,65.4,-4.3
2023/01/29 00:30:00,65.4,-4.5
2023/01/29 00:40:00,65.3,-4.9
2023/01/29 00:50:00,65.3,-4.6
2023/01/29 01:00:00,65.3,-4.5
2023/01/29 01:10:00,65.4,-4.4
2023/01/29 01:20:00,65.6,-4.1
2023/01/29 01:30:00,65.5,-4.1
2023/01/29 01:40:00,65.4,-4.2
2023/01/29 01:50:00,66.0,-4.1
2023/01/29 02:00:00,66.2,-3.9
2023/01/29 02:10:00,66.0,-4.1
2023/01/29 02:20:00,66.4,-3.6
2023/01/29 02:30:00,66.9,-4.1
2023/01/29 02:40:00,66.6,-4.5
2023/01/29 02:50:00,66.6,-4.5
2023/01/29 03:00:00,66.5,-4.7
2023/01/29 03:10:00,66.7,-5.1
2023/01/29 03:20:00,66.8,-5.2
2023/01/29 03:30:00,66.7,-6.0
2023/01/29 03:40:00,66.6,-5.8
2023/01/29 03:50:00,66.8,-6.1
2023/01/29 04:00:00,66.4,-5.6
2023/01/29 04:10:00,66.3,-6.3
2023/01/29 04:20:00,66.3,-6.2
2023/01/29 04:30:00,66.3,-6.5
2023/01/29 04:40:00,66.3,-6.4
2023/01/29 04:50:00,66.0,-6.2
2023/01/29 05:00:00,66.1,-5.7
2023/01/29 05:10:00,66.0,-5.3
2023/01/29 05:20:00,66.1,-4.6
2023/01/29 05:30:00,66.3,-5.3
2023/01/29 05:40:00,66.0,-5.4
2023/01/29 05:50:00,65.9,-5.1
2023/01/29 06:00:00,66.1,-4.8
2023/01/29 06:10:00,66.4,-4.8
2023/01/29 06:20:00,66.4,-4.6
2023/01/29 06:30:00,66.3,-4.7
2023/01/29 06:40:00,66.3,-4.6
2023/01/29 06:50:00,66.4,-4.6
2023/01/29 07:00:00,66.2,-4.7
2023/01/29 07:10:00,66.2,-4.4
2023/01/29 07:20:00,66.2,-4.1
2023/01/29 07:30:00,66.1,-3.9
2023/01/29 07:40:00,66.0,-3.9
2023/01/29 07:50:00,65.9,-4.1
2023/01/29 08:00:00,66.0,-4.5
2023/01/29 08:10:00,66.3,-4.5
2023/01/29 08:20:00,66.3,-4.4
2023/01/29 08:30:00,65.8,-4.5
2023/01/29 08:40:00,65.7,-3.9
2023/01/29 08:50:00,65.6,-3.8
2023/01/29 09:00:00,65.5,-3.8
2023/01/29 09:10:00,65.4,-3.2
2023/01/29 09:20:00,65.5, 3.5
2023/01/29 09:30:00,65.5, 3.7
2023/01/29 09:40:00,65.3,-1.0
2023/01/29 09:50:00,65.3, 5.3
2023/01/29 10:00:00,65.1, 0.4
2023/01/29 10:10:00,65.0, 0.2
2023/01/29 10:20:00,65.0, 0.2
2023/01/29 10:30:00,64.8, 0.3
2023/01/29 10:40:00,64.7, 1.7
2023/01/29 10:50:00,65.1, 1.6
2023/01/29 11:00:00,64.8, 0.8
2023/01/29 11:10:00,64.7, 1.3
2023/01/29 11:20:00,64.5, 1.4
2023/01/29 11:30:00,64.5, 1.3
2023/01/29 11:40:00,64.8, 0.2
2023/01/29 11:50:00,65.0, 1.5
2023/01/29 12:00:00,65.0, 0.3
2023/01/29 12:10:00,64.8, 1.2
2023/01/29 12:20:00,64.8, 1.6
2023/01/29 12:30:00,64.4, 1.2
2023/01/29 12:40:00,64.2, 1.5
2023/01/29 12:50:00,64.0, 3.8
2023/01/29 13:00:00,63.5, 2.2
2023/01/29 13:10:00,62.8, 2.1
2023/01/29 13:20:00,62.6, 3.5
2023/01/29 13:30:00,62.4, 2.0
2023/01/29 13:40:00,61.9, 3.2
2023/01/29 13:50:00,61.9, 3.3
2023/01/29 14:00:00,61.4, 3.7
2023/01/29 14:10:00,61.1, 2.0
2023/01/29 14:20:00,60.8, 1.7
2023/01/29 14:30:00,60.6, 1.1
2023/01/29 14:40:00,60.5, 1.1
2023/01/29 14:50:00,60.4, 1.8
2023/01/29 15:00:00,60.4, 1.1
2023/01/29 15:10:00,60.1, 1.7
2023/01/29 15:20:00,60.2, 1.8
2023/01/29 15:30:00,60.4, 1.4
2023/01/29 15:40:00,60.2, 0.4
2023/01/29 15:50:00,60.0, 1.0
2023/01/29 16:00:00,59.8, 0.4
2023/01/29 16:10:00,59.7, 0.2
2023/01/29 16:20:00,59.6,-0.1
2023/01/29 16:30:00,59.6,-0.4
2023/01/29 16:40:00,59.5,-0.7
2023/01/29 16:50:00,59.5,-0.4
2023/01/29 17:00:00,59.6,-0.5
2023/01/29 17:10:00,59.6,-0.4
2023/01/29 17:20:00,60.2,-0.9
2023/01/29 17:30:00,60.5,-0.7
2023/01/29 17:40:00,60.3,-1.0
2023/01/29 17:50:00,60.4,-0.9
2023/01/29 18:00:00,60.2,-0.9
2023/01/29 18:10:00,60.3,-1.0
2023/01/29 18:20:00,60.4,-1.0
2023/01/29 18:30:00,60.3,-0.8
2023/01/29 18:40:00,60.7,-0.9
2023/01/29 18:50:00,60.9,-0.8
2023/01/29 19:00:00,60.9,-1.1
2023/01/29 19:10:00,61.1,-0.9
2023/01/29 19:20:00,61.2,-1.2
2023/01/29 19:30:00,61.1,-1.0
2023/01/29 19:40:00,61.0,-1.1
2023/01/29 19:50:00,61.0,-1.3
2023/01/29 20:00:00,60.9,-1.4
2023/01/29 20:10:00,61.4,-1.4
2023/01/29 20:20:00,61.6,-1.4
2023/01/29 20:30:00,61.5,-1.5
2023/01/29 20:40:00,61.4,-1.2
2023/01/29 20:50:00,61.3,-1.7
2023/01/29 21:00:00,61.0,-2.1
2023/01/29 21:10:00,60.6,-1.9
2023/01/29 21:20:00,60.5,-2.2
2023/01/29 21:30:00,60.6,-2.2
2023/01/29 21:40:00,60.6,-2.6
2023/01/29 21:50:00,60.7,-2.8
2023/01/29 22:00:00,60.7,-2.1
2023/01/29 22:10:00,60.6,-2.8
2023/01/29 22:20:00,60.6,-2.7
2023/01/29 22:30:00,60.5,-2.2
2023/01/29 22:40:00,60.3,-2.7
2023/01/29 22:50:00,60.4,-2.5
2023/01/29 23:00:00,60.6,-2.4
2023/01/29 23:10:00,60.7,-2.3
2023/01/29 23:20:00,60.7,-2.1
2023/01/29 23:30:00,60.8,-2.7
2023/01/29 23:40:00,60.7,-3.0
2023/01/29 23:50:00,60.7,-3.0
